Tracking 30415 objects as of 14-May-2025
HD Live streaming from Space Station
objects crossing your sky now

THORAD AGENA D DEB

Track THORAD AGENA D DEB now!
10-day predictions


NORAD ID: 21721
Int'l Code: 1970-025QG
Perigee: 1,003.6 km
Apogee: 1,007.9 km
Inclination: 100.1 °
Period: 105.1 minutes
Semi major axis: 7376 km
RCS: 0.015 m2 (small)
Launch date: April 8, 1970
Source: United States (US)
Launch site: AIR FORCE WESTERN TEST RANGE (AFWTR)

Note: This is SATELLITE DEBRIS
Your satellite tracking list
Your tracking list is empty




NASA's NSSDC Master Catalog

Two Line Element Set (TLE):
1 21721U 70025QG  25133.29580600  .00001082  00000-0  12813-2 0  9999
2 21721 100.0897  59.9469 0002961 196.2893 317.7927 13.70269349669414
Source of the keplerian elements: AFSPC